Location: Gaast
(52.9002°N, 5.8891°E)
Time: 13:20:20
(UTC+00:00)

COSMOS 2406 - Visible Passes

Search period start: 14 February 2026 00:00
Search period end: 24 February 2026 00:00
Orbit: 843 x 861 km, 71.0° (Epoch: 13 February)

Date Brightness Start Highest point End Pass type
(mag) Time Alt. Az. Time Alt. Az. Time Alt. Az.
14 Feb 5.1 17:19:05 10° W 17:23:40 24° NW 17:28:17 10° NNE visible
14 Feb 5.5 19:07:35 10° NW 19:10:12 13° N 19:12:49 10° NNE visible
14 Feb 5.5 20:53:34 10° NNW 20:55:47 15° N 20:55:47 15° N visible
14 Feb 6.1 22:37:37 10° NNW 22:37:48 11° NNW 22:37:48 11° NNW visible
15 Feb 5.5 18:55:37 10° NW 18:58:14 13° N 19:00:52 10° NNE visible
15 Feb 5.4 20:41:36 10° NNW 20:44:08 16° N 20:44:08 16° N visible
15 Feb 6.0 22:25:39 10° NNW 22:26:10 12° NNW 22:26:10 12° NNW visible
16 Feb 5.5 18:43:40 10° NW 18:46:17 13° N 18:48:54 10° NNE visible
16 Feb 5.4 20:29:38 10° NNW 20:32:30 16° NNE 20:32:30 16° NNE visible
16 Feb 5.9 22:13:41 10° NNW 22:14:32 14° NNW 22:14:32 14° NNW visible
17 Feb 5.5 18:31:43 10° NW 18:34:19 13° N 18:36:56 10° NNE visible
17 Feb 5.3 20:17:40 10° NNW 20:20:53 16° NNE 20:20:53 16° NNE visible
17 Feb 5.7 22:01:43 10° NNW 22:02:54 16° NNW 22:02:54 16° NNW visible
18 Feb 5.5 18:19:46 10° NW 18:22:23 13° N 18:24:59 10° NNE visible
18 Feb 5.2 20:05:43 10° NNW 20:09:14 16° NNE 20:09:15 16° NNE visible
18 Feb 5.6 21:49:46 10° NNW 21:51:17 18° NNW 21:51:17 18° NNW visible
19 Feb 5.4 18:07:49 10° NW 18:10:25 13° N 18:13:02 10° NNE visible
19 Feb 5.2 19:53:45 10° NNW 19:57:17 16° NNE 19:57:38 16° NNE visible
19 Feb 5.4 21:37:47 10° NNW 21:39:40 20° NNW 21:39:40 20° NNW visible
20 Feb 5.4 17:55:51 10° NW 17:58:28 13° N 18:01:05 10° NNE visible
20 Feb 5.1 19:41:47 10° NNW 19:45:20 16° NNE 19:46:01 16° NNE visible
20 Feb 5.2 21:25:51 10° NNW 21:28:03 22° N 21:28:03 22° N visible
21 Feb 5.4 17:43:54 10° NW 17:46:30 13° N 17:49:07 10° NNE visible
21 Feb 5.1 19:29:50 10° NNW 19:33:23 16° NNE 19:34:25 16° NNE visible
21 Feb 5.1 21:13:53 10° NNW 21:16:27 24° N 21:16:27 24° N visible
21 Feb 6.0 22:58:13 10° NW 22:58:29 11° NW 22:58:29 11° NW visible
22 Feb 5.4 17:31:57 10° NW 17:34:33 13° N 17:37:10 10° NNE visible
22 Feb 5.1 19:17:52 10° NNW 19:21:25 16° NNE 19:22:50 15° NE visible
22 Feb 4.9 21:01:55 10° NNW 21:04:51 27° N 21:04:51 27° N visible
22 Feb 5.9 22:46:15 10° NW 22:46:53 13° NW 22:46:53 13° NW visible
23 Feb 5.1 19:05:55 10° NNW 19:09:28 16° NNE 19:11:15 14° NE visible
23 Feb 4.7 20:49:57 10° NNW 20:53:17 30° N 20:53:17 30° N visible
23 Feb 5.8 22:34:18 10° NW 22:35:19 15° NW 22:35:19 15° NW visible
